Volver al catálogo

METEOR 2-6 DEB

LostPO
NORAD 43299·DEBRIS·🇷🇺 Russia

Lanzado Sep 9, 1980 desde Plesetsk Cosmodrome

Loading…

Próximos Pases (próximas 24 horas)

TLE

ObsoletoSource: Space-Track

Época: Apr 4, 2024, 06:28 UTC

1 43299U 80073T   24095.26985876  .00009496  00000-0  31549-2 0  9998
2 43299  81.2046  87.8822 0029875  70.4239 290.0168 14.37414973488594

Sigue METEOR 2-6 DEB en tiempo real con AllMySat

Download on the App Store